Voltar ao catálogo

STARLINK-11472

AtivoComunicaçõesVLEO
NORAD 62067·PAYLOAD·🇺🇸 United States

Lançado Nov 24, 2024 de Vandenberg Space Force Base

Loading…

Próximas Passagens (próximas 24 horas)

TLE

AtualizadoSource: CelesTrak SupGP

Época: Sep 14, 2026, 22:32 UTC

1 62067C 24217L   26257.93937500  .00046234  00000+0  38058-3 0  2577
2 62067  53.1574 218.6775 0001325  93.7407 224.5172 15.69702869    12

Acompanhe STARLINK-11472 em tempo real com AllMySat

Download on the App Store